When you browse on this site, cookies collect data to enhance your experience and personalize the content and advertising you see.
Visit our Privacy Policy to learn more. By continuing to use the site, you agree to this use of cookies and data.
  • In Hungary
  • List of Countries
  • For 7 days
  • Water Temperature
  • Weather Map
  • News
  • Weather Widgets
  • user-avatar
    Login

    Hourly Weather Bolshoe Packovo

    Today, 20 August, Tuesday

    Time Temperature Precipitation Wind Pressure Humidity
    00:00 +18°C° 0 mm 3 mps 746 mmHg 81%
    01:00 +18°C° 0 mm 3 mps 746 mmHg 82%
    02:00 +17°C° 0 mm 2 mps 747 mmHg 81%
    03:00 +17°C° 0.3 mm 2 mps 747 mmHg 83%
    04:00 +17°C° 0.3 mm 3 mps 747 mmHg 85%
    05:00 +16°C° 0.3 mm 3 mps 748 mmHg 88%
    06:00 +17°C° 0 mm 3 mps 748 mmHg 88%
    07:00 +18°C° 0 mm 3 mps 748 mmHg 88%
    08:00 +20°C° 0 mm 3 mps 748 mmHg 87%
    09:00 +22°C° 0 mm 3 mps 748 mmHg 82%
    10:00 +24°C° 0 mm 3 mps 748 mmHg 76%
    11:00 +26°C° 0 mm 3 mps 748 mmHg 71%
    12:00 +27°C° 0 mm 3 mps 748 mmHg 68%
    13:00 +27°C° 0 mm 3 mps 749 mmHg 66%
    14:00 +28°C° 0 mm 3 mps 749 mmHg 65%
    15:00 +28°C° 0.2 mm 2 mps 749 mmHg 68%
    16:00 +27°C° 0.2 mm 2 mps 749 mmHg 71%
    17:00 +27°C° 0.2 mm 1 mps 749 mmHg 74%
    18:00 +25°C° 0.5 mm 1 mps 749 mmHg 79%
    19:00 +23°C° 0.5 mm 1 mps 749 mmHg 84%
    20:00 +22°C° 0.5 mm 1 mps 749 mmHg 89%
    21:00 +21°C° 0.4 mm 1 mps 749 mmHg 91%
    22:00 +21°C° 0.4 mm 1 mps 749 mmHg 92%
    23:00 +20°C° 0.4 mm 1 mps 749 mmHg 93%

    Tomorrow, 21 August, Wednesday

    Time Temperature Precipitation Wind Pressure Humidity
    00:00 +20°C° 0.1 mm 1 mps 749 mmHg 93%
    01:00 +20°C° 0.1 mm 1 mps 750 mmHg 94%
    02:00 +19°C° 0.1 mm 2 mps 750 mmHg 94%
    03:00 +19°C° 0.1 mm 2 mps 750 mmHg 94%
    04:00 +18°C° 0.1 mm 2 mps 750 mmHg 94%
    05:00 +18°C° 0.1 mm 2 mps 749 mmHg 94%
    06:00 +19°C° 0 mm 2 mps 749 mmHg 92%
    07:00 +19°C° 0 mm 2 mps 749 mmHg 90%
    08:00 +20°C° 0 mm 2 mps 749 mmHg 88%
    09:00 +21°C° 0 mm 3 mps 749 mmHg 83%
    10:00 +24°C° 0 mm 3 mps 749 mmHg 78%
    11:00 +25°C° 0 mm 3 mps 749 mmHg 72%
    12:00 +27°C° 0 mm 4 mps 749 mmHg 69%
    13:00 +28°C° 0 mm 4 mps 748 mmHg 66%
    14:00 +29°C° 0 mm 5 mps 748 mmHg 63%
    15:00 +28°C° 0 mm 4 mps 748 mmHg 67%
    16:00 +28°C° 0 mm 4 mps 747 mmHg 70%
    17:00 +28°C° 0 mm 3 mps 747 mmHg 73%
    18:00 +26°C° 0 mm 3 mps 747 mmHg 75%
    19:00 +24°C° 0 mm 3 mps 747 mmHg 78%
    20:00 +22°C° 0 mm 3 mps 747 mmHg 80%
    21:00 +21°C° 0 mm 4 mps 747 mmHg 79%
    22:00 +21°C° 0 mm 4 mps 747 mmHg 78%
    23:00 +21°C° 0 mm 4 mps 747 mmHg 77%

    Day after tomorrow, 22 August, Thursday

    Time Temperature Precipitation Wind Pressure Humidity
    00:00 +20°C° 0.3 mm 4 mps 747 mmHg 80%
    01:00 +20°C° 0.3 mm 3 mps 748 mmHg 83%
    02:00 +19°C° 0.3 mm 3 mps 748 mmHg 86%
    03:00 +18°C° 0.5 mm 4 mps 748 mmHg 89%
    04:00 +18°C° 0.5 mm 4 mps 748 mmHg 92%
    05:00 +16°C° 0.5 mm 5 mps 748 mmHg 95%
    06:00 +15°C° 0.2 mm 5 mps 749 mmHg 93%
    07:00 +15°C° 0.2 mm 5 mps 749 mmHg 92%
    08:00 +15°C° 0.2 mm 6 mps 750 mmHg 90%
    09:00 +15°C° 0 mm 6 mps 750 mmHg 87%
    10:00 +16°C° 0 mm 6 mps 750 mmHg 85%
    11:00 +17°C° 0 mm 6 mps 750 mmHg 82%
    12:00 +19°C° 0 mm 6 mps 751 mmHg 78%
    13:00 +20°C° 0 mm 5 mps 751 mmHg 74%
    14:00 +20°C° 0 mm 5 mps 751 mmHg 70%
    15:00 +20°C° 0 mm 5 mps 751 mmHg 72%
    16:00 +20°C° 0 mm 4 mps 751 mmHg 73%
    17:00 +20°C° 0 mm 4 mps 751 mmHg 74%
    18:00 +19°C° 0 mm 3 mps 751 mmHg 78%
    19:00 +17°C° 0 mm 3 mps 751 mmHg 83%
    20:00 +16°C° 0 mm 3 mps 752 mmHg 87%
    21:00 +14°C° 0 mm 3 mps 752 mmHg 87%
    22:00 +14°C° 0 mm 3 mps 752 mmHg 87%
    23:00 +13°C° 0 mm 3 mps 752 mmHg 87%

    23 August, Friday

    Time Temperature Precipitation Wind Pressure Humidity
    00:00 +13°C° 0 mm 3 mps 752 mmHg 87%
    01:00 +13°C° 0 mm 3 mps 752 mmHg 87%
    02:00 +13°C° 0 mm 2 mps 752 mmHg 87%
    03:00 +13°C° 0 mm 2 mps 752 mmHg 88%
    04:00 +12°C° 0 mm 2 mps 752 mmHg 89%
    05:00 +12°C° 0 mm 2 mps 752 mmHg 90%
    06:00 +14°C° 0 mm 2 mps 752 mmHg 86%
    07:00 +15°C° 0 mm 2 mps 753 mmHg 82%
    08:00 +17°C° 0 mm 2 mps 753 mmHg 78%
    09:00 +18°C° 0 mm 2 mps 753 mmHg 72%
    10:00 +19°C° 0 mm 2 mps 753 mmHg 67%
    11:00 +20°C° 0 mm 2 mps 753 mmHg 62%
    12:00 +21°C° 0 mm 2 mps 753 mmHg 59%
    13:00 +21°C° 0 mm 2 mps 753 mmHg 57%
    14:00 +23°C° 0 mm 2 mps 753 mmHg 54%
    15:00 +23°C° 0 mm 2 mps 752 mmHg 59%
    16:00 +21°C° 0 mm 2 mps 752 mmHg 63%
    17:00 +21°C° 0 mm 2 mps 752 mmHg 67%
    18:00 +20°C° 0 mm 1 mps 752 mmHg 71%
    19:00 +18°C° 0 mm 1 mps 752 mmHg 76%
    20:00 +15°C° 0 mm 1 mps 752 mmHg 80%
    21:00 +15°C° 0 mm 1 mps 752 mmHg 82%
    22:00 +15°C° 0 mm 1 mps 752 mmHg 83%
    23:00 +14°C° 0 mm 1 mps 752 mmHg 85%

    24 August, Saturday

    Time Temperature Precipitation Wind Pressure Humidity
    00:00 +14°C° 0 mm 1 mps 752 mmHg 86%
    01:00 +13°C° 0 mm 1 mps 752 mmHg 86%
    02:00 +13°C° 0 mm 1 mps 752 mmHg 87%
    03:00 +13°C° 0 mm 1 mps 752 mmHg 87%
    04:00 +12°C° 0 mm 1 mps 752 mmHg 88%
    05:00 +11°C° 0 mm 0 mps 752 mmHg 88%
    06:00 +13°C° 0 mm 0 mps 752 mmHg 83%
    07:00 +15°C° 0 mm 0 mps 753 mmHg 78%
    08:00 +16°C° 0 mm 0 mps 753 mmHg 74%
    09:00 +20°C° 0 mm 1 mps 753 mmHg 69%
    10:00 +21°C° 0 mm 1 mps 752 mmHg 65%
    11:00 +22°C° 0 mm 1 mps 752 mmHg 60%
    12:00 +23°C° 0 mm 1 mps 752 mmHg 59%
    13:00 +23°C° 0 mm 2 mps 752 mmHg 57%
    14:00 +23°C° 0 mm 2 mps 751 mmHg 56%
    15:00 +23°C° 0 mm 2 mps 751 mmHg 60%
    16:00 +23°C° 0 mm 2 mps 751 mmHg 64%
    17:00 +23°C° 0 mm 1 mps 750 mmHg 68%
    18:00 +21°C° 0 mm 1 mps 750 mmHg 72%
    19:00 +19°C° 0 mm 1 mps 750 mmHg 77%
    20:00 +16°C° 0 mm 1 mps 750 mmHg 81%
    21:00 +16°C° 0 mm 1 mps 750 mmHg 81%
    22:00 +15°C° 0 mm 1 mps 750 mmHg 81%
    23:00 +15°C° 0 mm 2 mps 750 mmHg 80%

    25 August, Sunday

    Time Temperature Precipitation Wind Pressure Humidity
    00:00 +15°C° 0 mm 2 mps 750 mmHg 82%
    01:00 +14°C° 0 mm 2 mps 750 mmHg 84%
    02:00 +14°C° 0 mm 2 mps 750 mmHg 86%
    03:00 +14°C° 0 mm 2 mps 749 mmHg 88%
    04:00 +13°C° 0 mm 2 mps 749 mmHg 90%
    05:00 +13°C° 0 mm 2 mps 749 mmHg 92%
    06:00 +15°C° 0 mm 2 mps 750 mmHg 89%
    07:00 +16°C° 0 mm 2 mps 750 mmHg 85%
    08:00 +18°C° 0 mm 3 mps 750 mmHg 82%
    09:00 +19°C° 0 mm 3 mps 750 mmHg 78%
    10:00 +20°C° 0 mm 3 mps 750 mmHg 75%
    11:00 +21°C° 0 mm 3 mps 750 mmHg 71%
    12:00 +22°C° 0.1 mm 3 mps 750 mmHg 70%
    13:00 +22°C° 0.1 mm 3 mps 750 mmHg 68%
    14:00 +22°C° 0.1 mm 3 mps 750 mmHg 67%
    15:00 +22°C° 0 mm 3 mps 750 mmHg 68%
    16:00 +21°C° 0 mm 3 mps 750 mmHg 69%
    17:00 +21°C° 0 mm 3 mps 750 mmHg 70%
    18:00 +19°C° 0 mm 3 mps 750 mmHg 75%
    19:00 +17°C° 0 mm 2 mps 750 mmHg 79%
    20:00 +15°C° 0 mm 2 mps 751 mmHg 83%
    21:00 +14°C° 0 mm 2 mps 751 mmHg 85%
    22:00 +13°C° 0 mm 2 mps 751 mmHg 87%
    23:00 +13°C° 0 mm 2 mps 751 mmHg 89%
    Show more